Location: Newark
(35.8833°N, 14.5000°E)
Time: 08:25:21
(UTC+00:00)

Altair - Pass Details

Date: 20 November 2019
Orbit: 1502 x 1682 km, 47.2° (Epoch: 16 December)

Event Time Altitude Azimuth Distance (km) Brightness Sun altitude
Rises 05:42:32 0° 296° (WNW) 4,636 - -0.9°
Exits shadow 05:42:51 - 296° (WNW) 4,539 9.2 -0.8°
Reaches altitude 10° 05:45:44 10° 302° (WNW) 3,660 8.8 -0.3°
Maximum altitude 05:54:32 47° 15° (NNE) 1,946 8.1 1.3°
Drops below altitude 10° 06:03:33 10° 87° (E) 3,753 10.8 3.0°
Sets 06:06:52 0° 93° (E) 4,762 11.5 3.6°
